Date String (YYYY-MM-DD hh:mm:ss) UTC,Instrument flags,absolute air pressure of the measurement (hPa),sample flow rate (lpm),inlet stack bypass flow (lpm),air temperature of the measurement (°C),ambient temperature measured by the external sensor (°C),aerosol sample conditioner tube jacket temperature (°C),OPC LED temperature (°C),internal box temperature (°C),relative humidity of the measurement (%),span deviation,mass concentration of particles derived from Lorenz-Mie calculation of OPC scattering (μg/m³),mass concentration of particles derived from Lorenz-Mie calculation of OPC scattering (μg/m³),mass concentration of particles derived from Lorenz-Mie calculation of OPC scattering (μg/m³)
DateTimeUTC,F1_M11,P_M11,Q1_M11,Q2_M11,T1_M11,T2_M11,T3_M11,T4_M11,T5_M11,U1_M11,ZSPAN_M11,X0_M11,X2_M11,X1_M11
2023-08-07 19:00:00,SystemResetWarning,0833.2,5.00,000.00,029.1,027.4,000.0,037.6,030.8,22.0,0000.0,0009.88,0004.39,0003.91
2023-08-07 19:01:00,SystemResetWarning,0833.2,5.01,000.00,029.1,027.6,000.0,037.6,030.9,22.0,0000.0,0009.12,0004.39,0003.91
2023-08-07 19:02:00,SystemResetWarning,0833.2,5.00,000.00,029.2,027.7,000.0,037.6,030.9,22.2,0000.0,0008.65,0004.38,0003.92
2023-08-07 19:03:00,SystemResetWarning,0833.2,4.98,000.00,029.2,026.4,000.0,037.5,030.7,21.9,0000.0,0008.87,0004.38,0003.92
2023-08-07 19:04:00,SystemResetWarning,0833.3,5.00,000.00,029.1,024.9,000.0,037.4,030.4,21.3,0000.0,0008.40,0004.41,0003.95
2023-08-07 19:05:00,SystemResetWarning,0832.9,5.01,000.00,029.0,024.8,000.0,037.3,030.3,20.8,0000.0,0008.47,0004.40,0003.94
2023-08-07 19:06:00,SystemResetWarning,0833.2,5.01,000.00,028.9,025.1,000.0,037.3,030.2,20.4,0000.0,0008.02,0004.38,0003.92
2023-08-07 19:07:00,SystemResetWarning,0833.4,4.99,000.00,028.9,025.6,000.0,037.4,030.3,20.2,0000.0,0008.24,0004.33,0003.88
2023-08-07 19:08:00,SystemResetWarning,0833.3,5.00,000.00,028.9,026.0,000.0,037.4,030.4,19.7,0000.0,0008.37,0004.30,0003.81
2023-08-07 19:09:00,SystemResetWarning,0833.4,4.99,000.00,028.9,026.4,000.0,037.4,030.5,19.8,0000.0,0008.86,0004.26,0003.73
2023-08-07 19:10:00,SystemResetWarning,0833.0,4.99,000.00,028.9,026.8,000.0,037.4,030.6,20.0,0000.0,0009.02,0004.15,0003.61
2023-08-07 19:11:00,SystemResetWarning,0832.7,5.01,000.00,029.0,027.1,000.0,037.4,030.7,20.9,0000.0,0008.89,0004.01,0003.49
2023-08-07 19:12:00,SystemResetWarning,0832.7,5.01,000.00,029.0,027.4,000.0,037.5,030.7,20.7,0000.0,0008.81,0003.91,0003.36
2023-08-07 19:13:00,SystemResetWarning,0832.7,5.00,000.00,029.0,027.6,000.0,037.5,030.8,19.8,0000.0,0008.72,0003.83,0003.27
2023-08-07 19:14:00,SystemResetWarning,0832.6,4.99,000.00,029.1,027.8,000.0,037.5,030.8,19.6,0000.0,0008.91,0003.75,0003.19
2023-08-07 19:15:00,SystemResetWarning,0832.6,4.99,000.00,029.1,027.9,000.0,037.5,030.9,19.6,0000.0,0008.65,0003.63,0003.09
2023-08-07 19:16:00,SystemResetWarning,0832.6,5.00,000.00,029.2,027.9,000.0,037.5,030.9,19.7,0000.0,0008.48,0003.56,0003.00
2023-08-07 19:17:00,SystemResetWarning,0832.6,5.00,000.00,029.2,026.4,000.0,037.4,030.7,19.2,0000.0,0008.58,0003.53,0002.92
2023-08-07 19:18:00,SystemResetWarning,0832.6,5.00,000.00,029.1,024.9,000.0,037.3,030.4,18.9,0000.0,0008.16,0003.49,0002.85
2023-08-07 19:19:00,SystemResetWarning,0832.6,5.02,000.00,029.0,024.9,000.0,037.2,030.3,18.5,0000.0,0008.04,0003.45,0002.78
2023-08-07 19:20:00,SystemResetWarning,0832.5,5.00,000.00,028.9,025.3,000.0,037.3,030.2,19.2,0000.0,0007.67,0003.42,0002.74
2023-08-07 19:21:00,SystemResetWarning,0832.5,4.99,000.00,028.9,025.7,000.0,037.3,030.3,20.1,0000.0,0007.35,0003.43,0002.78
2023-08-07 19:22:00,SystemResetWarning,0832.5,5.00,000.00,028.9,026.1,000.0,037.4,030.4,19.8,0000.0,0007.64,0003.43,0002.81
2023-08-07 19:23:00,SystemResetWarning,0832.5,5.01,000.00,028.9,026.5,000.0,037.4,030.5,20.7,0000.0,0007.78,0003.43,0002.82
2023-08-07 19:24:00,SystemResetWarning,0832.6,5.01,000.00,028.9,026.8,000.0,037.4,030.6,21.1,0000.0,0007.48,0003.40,0002.81
2023-08-07 19:25:00,SystemResetWarning,0832.5,4.99,000.00,028.9,027.1,000.0,037.4,030.7,20.7,0000.0,0007.08,0003.39,0002.77
2023-08-07 19:26:00,SystemResetWarning,0832.5,4.99,000.00,029.0,027.4,000.0,037.4,030.7,20.0,0000.0,0007.23,0003.40,0002.74
2023-08-07 19:27:00,SystemResetWarning,0832.5,5.00,000.00,029.0,027.6,000.0,037.5,030.8,19.7,0000.0,0007.48,0003.40,0002.70
2023-08-07 19:28:00,SystemResetWarning,0832.5,5.00,000.00,029.1,027.8,000.0,037.5,030.8,20.0,0000.0,0007.44,0003.36,0002.65
2023-08-07 19:29:00,SystemResetWarning,0832.5,5.00,000.00,029.1,027.9,000.0,037.5,030.9,20.6,0000.0,0007.73,0003.33,0002.59
2023-08-07 19:30:00,SystemResetWarning,0832.4,5.00,000.00,029.2,027.8,000.0,037.5,030.9,20.9,0000.0,0007.83,0003.32,0002.57
2023-08-07 19:31:00,SystemResetWarning,0832.3,4.99,000.00,029.1,026.0,000.0,037.4,030.6,20.7,0000.0,0007.62,0003.28,0002.53
2023-08-07 19:32:00,SystemResetWarning,0832.3,5.01,000.00,029.1,024.8,000.0,037.3,030.3,20.6,0000.0,0007.57,0003.24,0002.48
2023-08-07 19:33:00,SystemResetWarning,0832.3,5.02,000.00,029.0,024.9,000.0,037.2,030.3,20.9,0000.0,0007.00,0003.20,0002.43
2023-08-07 19:34:00,SystemResetWarning,0832.3,5.00,000.00,028.9,025.3,000.0,037.3,030.2,20.4,0000.0,0007.05,0003.21,0002.38
2023-08-07 19:35:00,SystemResetWarning,0832.3,5.00,000.00,028.9,025.7,000.0,037.3,030.3,21.3,0000.0,0007.45,0003.20,0002.34
2023-08-07 19:36:00,SystemResetWarning,0832.3,5.00,000.00,028.9,026.1,000.0,037.3,030.4,21.4,0000.0,0007.28,0003.16,0002.31
2023-08-07 19:37:00,SystemResetWarning,0832.3,4.99,000.00,028.9,026.5,000.0,037.4,030.5,20.6,0000.0,0007.21,0003.16,0002.29
2023-08-07 19:38:00,SystemResetWarning,0832.4,5.00,000.00,028.9,026.8,000.0,037.4,030.6,20.4,0000.0,0007.13,0003.15,0002.27
2023-08-07 19:39:00,SystemResetWarning,0832.5,5.00,000.00,028.9,027.1,000.0,037.4,030.7,19.7,0000.0,0007.14,0003.16,0002.28
2023-08-07 19:40:00,SystemResetWarning,0832.5,5.00,000.00,029.0,027.4,000.0,037.4,030.7,20.2,0000.0,0006.84,0003.17,0002.29
2023-08-07 19:41:00,SystemResetWarning,0832.5,5.01,000.00,029.0,027.6,000.0,037.4,030.8,21.2,0000.0,0006.26,0003.16,0002.29
2023-08-07 19:42:00,SystemResetWarning,0832.5,5.00,000.00,029.1,027.8,000.0,037.5,030.8,20.8,0000.0,0006.88,0003.19,0002.30
2023-08-07 19:43:00,SystemResetWarning,0832.5,5.00,000.00,029.1,027.9,000.0,037.5,030.9,20.4,0000.0,0007.05,0003.20,0002.31
2023-08-07 19:44:00,SystemResetWarning,0832.5,5.00,000.00,029.2,028.1,000.0,037.5,031.0,19.9,0000.0,0007.44,0003.24,0002.32
2023-08-07 19:45:00,SystemResetWarning,0832.6,5.00,000.00,029.2,027.8,000.0,037.5,031.0,19.7,0000.0,0007.41,0003.21,0002.33
2023-08-07 19:46:00,SystemResetWarning,0832.5,4.99,000.00,029.2,026.0,000.0,037.4,030.7,19.8,0000.0,0006.79,0003.19,0002.33
2023-08-07 19:47:00,SystemResetWarning,0832.5,5.01,000.00,029.1,024.8,000.0,037.3,030.4,20.3,0000.0,0006.75,0003.21,0002.34
2023-08-07 19:48:00,SystemResetWarning,0832.4,5.00,000.00,029.0,025.0,000.0,037.2,030.2,20.8,0000.0,0006.83,0003.20,0002.34
2023-08-07 19:49:00,SystemResetWarning,0832.4,4.99,000.00,028.9,025.3,000.0,037.3,030.2,20.6,0000.0,0007.09,0003.22,0002.35
2023-08-07 19:50:00,SystemResetWarning,0832.4,5.00,000.00,028.9,025.8,000.0,037.3,030.3,21.6,0000.0,0007.51,0003.22,0002.37
2023-08-07 19:51:00,SystemResetWarning,0832.4,5.01,000.00,028.9,026.2,000.0,037.4,030.4,21.8,0000.0,0007.45,0003.19,0002.37
2023-08-07 19:52:00,SystemResetWarning,0832.4,5.00,000.00,028.9,026.6,000.0,037.4,030.5,20.2,0000.0,0008.25,0003.20,0002.37
2023-08-07 19:53:00,SystemResetWarning,0832.5,5.00,000.00,028.9,026.9,000.0,037.4,030.6,19.9,0000.0,0008.58,0003.19,0002.34
2023-08-07 19:54:00,SystemResetWarning,0832.4,4.99,000.00,029.0,027.2,000.0,037.4,030.7,19.7,0000.0,0008.61,0003.15,0002.33
2023-08-07 19:55:00,SystemResetWarning,0832.4,4.99,000.00,029.0,027.4,000.0,037.5,030.8,19.9,0000.0,0009.08,0003.18,0002.32
2023-08-07 19:56:00,SystemResetWarning,0832.4,4.99,000.00,029.1,027.7,000.0,037.5,030.8,18.9,0000.0,0009.25,0003.22,0002.30
2023-08-07 19:57:00,SystemResetWarning,0832.4,5.00,000.00,029.1,027.9,000.0,037.5,030.9,19.3,0000.0,0009.29,0003.24,0002.31
2023-08-07 19:58:00,SystemResetWarning,0832.5,5.01,000.00,029.2,027.9,000.0,037.5,031.0,19.8,0000.0,0009.22,0003.22,0002.29
2023-08-07 19:59:00,SystemResetWarning,0832.6,4.99,000.00,029.2,026.7,000.0,037.4,030.7,19.4,0000.0,0009.37,0003.26,0002.28
